Danville, IN

6:45 AM EST on December 16, 2019 (GMT -0500)
Vermilion County

Weather History for KDNV - November, 2019

Change the Weather History Date:

Saturday, November 16, 2019

  Actual Average (WUND) Record (WUND)
Temperature  
Mean Temperature 35 °F -  
Max Temperature 44 °F - - (-1)
Min Temperature 26 °F - - (-1)
Degree Days  
Heating Degree Days 30    
Moisture  
Dew Point 29 °F    
Average Humidity 82    
Maximum Humidity 96    
Minimum Humidity 59    
Precipitation  
Precipitation 0.00 in - - ()
Sea Level Pressure  
Sea Level Pressure 30.29 in    
Wind  
Wind Speed 6 mph ()    
Max Wind Speed 13 mph    
Max Gust Speed 16 mph    
Visibility 6.9 miles    
Events      
Averages and records for this station are not official NWS values.
T = Trace of Precipitation, MM = Missing Value Source: Averaged Metar Reports

Daily Weather History Graph

Daily Weather History Graph

Search for Another Location

Airport or City:

Astronomy

Nov. 16, 2019 Rise Set
Actual Time 6:36 AM CST 4:32 PM CST
Civil Twilight 6:07 AM CST 5:02 PM CST
Nautical Twilight 5:34 AM CST 5:34 PM CST
Astronomical Twilight 5:02 AM CST 6:07 PM CST
Moon 8:05 PM CST 10:30 AM CST
Length of Visible Light 10h 54m
Length of Day
9h 56m
Waning Gibbous, 82% of the Moon is Illuminated
Nov 16
Waning Gibbous
Nov 19
Last Quarter
Nov 26
New
Dec 4
First Quarter
Dec 11
Full

Hourly Weather History & Observations

Time (CST) Temp. Windchill Dew Point Humidity Pressure Visibility Wind Dir Wind Speed Gust Speed Precip Events Conditions
12:15 AM 31.8 °F 26.2 °F 27.9 °F 85% 30.37 in 7.0 mi NE 5.8 mph - N/A   Clear
12:55 AM 31.1 °F 24.5 °F 27.7 °F 87% 30.36 in 5.0 mi NE 6.9 mph - N/A   Clear
1:15 AM 30.6 °F 25.8 °F 27.3 °F 88% 30.36 in 5.0 mi NE 4.6 mph - N/A   Clear
1:35 AM 29.8 °F 24.9 °F 27.1 °F 90% 30.36 in 4.0 mi NE 4.6 mph - N/A   Clear
1:55 AM 30.4 °F 25.6 °F 27.5 °F 89% 30.35 in 4.0 mi NE 4.6 mph - N/A   Clear
2:15 AM 30.2 °F 25.4 °F 27.5 °F 90% 30.35 in 4.0 mi NE 4.6 mph - N/A   Clear
2:35 AM 28.6 °F 24.8 °F 26.1 °F 90% 30.35 in 3.0 mi NNE 3.5 mph - N/A   Clear
2:55 AM 27.5 °F 23.6 °F 26.1 °F 94% 30.35 in 3.0 mi NE 3.5 mph - N/A   Clear
3:15 AM 27.3 °F 22.0 °F 25.7 °F 94% 30.34 in 3.0 mi NNE 4.6 mph - N/A   Clear
3:35 AM 27.0 °F 23.0 °F 25.7 °F 95% 30.35 in 2.5 mi NNE 3.5 mph - N/A   Clear
3:55 AM 26.6 °F 20.0 °F 25.5 °F 96% 30.35 in 2.5 mi NNE 5.8 mph - N/A   Clear
4:15 AM 26.4 °F 18.9 °F 25.3 °F 96% 30.35 in 2.5 mi NNE 6.9 mph - N/A   Clear
4:35 AM 27.1 °F 21.8 °F 26.1 °F 96% 30.36 in 2.5 mi NNE 4.6 mph - N/A   Clear
4:55 AM 27.3 °F 23.4 °F 26.2 °F 96% 30.36 in 2.5 mi NNE 3.5 mph - N/A   Clear
5:15 AM 27.5 °F 22.2 °F 26.4 °F 96% 30.36 in 2.0 mi NNE 4.6 mph - N/A   Clear
5:35 AM 27.5 °F 22.2 °F 26.6 °F 96% 30.36 in 2.0 mi NNE 4.6 mph - N/A   Clear
5:55 AM 27.3 °F 22.0 °F 26.2 °F 96% 30.36 in 2.0 mi NE 4.6 mph - N/A   Clear
6:15 AM 28.9 °F 23.9 °F 27.3 °F 94% 30.37 in 2.5 mi NNE 4.6 mph - N/A   Clear
6:35 AM 27.0 °F 21.6 °F 25.7 °F 95% 30.37 in 2.0 mi NNE 4.6 mph - N/A   Clear
6:55 AM 28.6 °F 22.4 °F 27.5 °F 96% 30.37 in 2.0 mi NE 5.8 mph - N/A   Clear
7:15 AM 29.3 °F 23.2 °F 27.9 °F 94% 30.37 in 2.0 mi NE 5.8 mph - N/A   Clear
7:35 AM 29.8 °F 26.3 °F 28.0 °F 93% 30.38 in 2.0 mi ENE 3.5 mph - N/A   Clear
7:55 AM 30.4 °F 26.9 °F 28.2 °F 92% 30.38 in 2.0 mi East 3.5 mph - N/A   Clear
8:15 AM 32.2 °F 26.7 °F 29.3 °F 89% 30.38 in 3.0 mi East 5.8 mph - N/A   Clear
8:35 AM 33.1 °F 25.5 °F 29.3 °F 86% 30.38 in 4.0 mi East 9.2 mph - N/A   Clear
8:55 AM 34.0 °F 26.6 °F 29.3 °F 83% 30.38 in 4.0 mi East 9.2 mph - N/A   Haze
9:15 AM 34.7 °F 28.1 °F 29.3 °F 81% 30.38 in 5.0 mi East 8.1 mph - N/A   Haze
9:35 AM 35.2 °F 26.6 °F 29.5 °F 80% 30.37 in 5.0 mi East 12.7 mph - N/A   Haze
9:55 AM 35.6 °F 28.0 °F 29.3 °F 78% 30.37 in 5.0 mi East 10.4 mph 16.1 mph N/A   Haze
10:15 AM 36.9 °F 30.1 °F 30.2 °F 77% 30.37 in 5.0 mi East 9.2 mph 16.1 mph N/A   Haze
10:35 AM 38.3 °F 31.9 °F 31.1 °F 75% 30.36 in 7.0 mi East 9.2 mph - N/A   Clear
10:55 AM 39.2 °F 31.6 °F 30.2 °F 70% 30.35 in 7.0 mi East 12.7 mph - N/A   Clear
11:15 AM 39.9 °F 33.4 °F 30.7 °F 70% 30.34 in 7.0 mi East 10.4 mph - N/A   Clear
11:55 AM 42.1 °F 38.4 °F 31.5 °F 66% 30.31 in 7.0 mi ESE 5.8 mph - N/A   Clear
12:15 PM 41.9 °F 37.5 °F 30.6 °F 64% 30.30 in 10.0 mi East 6.9 mph - N/A   Clear
12:35 PM 43.0 °F 38.2 °F 31.1 °F 63% 30.29 in 10.0 mi East 8.1 mph - N/A   Clear
12:55 PM 43.5 °F 39.4 °F 31.3 °F 62% 30.28 in 10.0 mi East 6.9 mph - N/A   Clear
1:15 PM 43.9 °F 41.3 °F 31.1 °F 61% 30.28 in 10.0 mi ENE 4.6 mph - N/A   Clear
1:35 PM 44.2 °F 39.2 °F 30.9 °F 60% 30.27 in 10.0 mi East 9.2 mph - N/A   Clear
1:55 PM 43.9 °F 39.9 °F 30.4 °F 59% 30.26 in 10.0 mi ENE 6.9 mph - N/A   Clear
2:15 PM 44.6 °F 40.2 °F 31.1 °F 59% 30.25 in 10.0 mi East 8.1 mph - N/A   Clear
2:35 PM 44.6 °F 40.2 °F 31.1 °F 59% 30.25 in 10.0 mi East 8.1 mph - N/A   Clear
2:55 PM 43.9 °F 39.3 °F 31.1 °F 61% 30.25 in 10.0 mi ENE 8.1 mph - N/A   Clear
3:15 PM 43.5 °F 38.3 °F 31.1 °F 62% 30.25 in 10.0 mi East 9.2 mph - N/A   Clear
3:55 PM 41.9 °F 37.5 °F 32.0 °F 68% 30.25 in 10.0 mi ENE 6.9 mph - N/A   Clear
4:15 PM 41.0 °F 35.8 °F 31.6 °F 69% 30.25 in 10.0 mi East 8.1 mph - N/A   Clear
4:35 PM 39.6 °F 35.4 °F 30.7 °F 71% 30.24 in 10.0 mi ENE 5.8 mph - N/A   Clear
4:55 PM 37.9 °F 33.5 °F 30.6 °F 75% 30.24 in 10.0 mi East 5.8 mph - N/A   Clear
5:15 PM 36.1 °F 31.4 °F 30.0 °F 78% 30.23 in 10.0 mi ENE 5.8 mph - N/A   Clear
5:35 PM 35.6 °F 31.7 °F 29.8 °F 80% 30.22 in 10.0 mi ENE 4.6 mph - N/A   Clear
5:55 PM 35.2 °F 31.2 °F 29.8 °F 81% 30.23 in 10.0 mi NE 4.6 mph - N/A   Clear
6:15 PM 34.9 °F 32.0 °F 29.5 °F 81% 30.22 in 10.0 mi ENE 3.5 mph - N/A   Clear
6:35 PM 34.9 °F 30.8 °F 29.3 °F 80% 30.23 in 10.0 mi NE 4.6 mph - N/A   Clear
6:55 PM 34.7 °F 31.8 °F 29.1 °F 80% 30.23 in 10.0 mi ENE 3.5 mph - N/A   Clear
7:15 PM 34.0 °F 29.8 °F 28.8 °F 81% 30.22 in 10.0 mi ENE 4.6 mph - N/A   Clear
7:35 PM 33.1 °F 30.0 °F 28.4 °F 83% 30.22 in 10.0 mi ENE 3.5 mph - N/A   Clear
7:55 PM 32.9 °F 28.5 °F 28.2 °F 83% 30.22 in 10.0 mi ENE 4.6 mph - N/A   Clear
8:15 PM 33.1 °F 26.1 °F 28.4 °F 83% 30.21 in 10.0 mi East 8.1 mph - N/A   Clear
8:35 PM 33.8 °F 27.0 °F 28.6 °F 81% 30.21 in 10.0 mi East 8.1 mph - N/A   Clear
8:55 PM 33.8 °F 25.8 °F 28.4 °F 81% 30.19 in 10.0 mi East 10.4 mph - N/A   Clear
9:15 PM 33.3 °F 25.7 °F 28.2 °F 82% 30.20 in 10.0 mi East 9.2 mph - N/A   Clear
9:35 PM 32.5 °F 25.5 °F 28.0 °F 83% 30.19 in 10.0 mi East 8.1 mph - N/A   Clear
9:55 PM 32.2 °F 26.7 °F 28.0 °F 85% 30.19 in 10.0 mi East 5.8 mph - N/A   Clear
10:15 PM 32.0 °F 25.6 °F 27.9 °F 85% 30.18 in 10.0 mi East 6.9 mph - N/A   Clear
10:35 PM 31.1 °F 27.7 °F 27.5 °F 87% 30.19 in 10.0 mi East 3.5 mph - N/A   Clear
10:55 PM 30.7 °F 27.3 °F 27.3 °F 87% 30.19 in 10.0 mi East 3.5 mph - N/A   Clear
11:15 PM 30.0 °F 26.5 °F 26.8 °F 88% 30.18 in 10.0 mi East 3.5 mph - N/A   Clear
11:35 PM 30.0 °F - 27.0 °F 88% 30.18 in 10.0 mi Calm Calm - N/A   Clear
11:55 PM 29.1 °F 25.4 °F 26.4 °F 90% 30.17 in 10.0 mi East 3.5 mph - N/A   Clear